Moses Lake, WA
on Thursday, January 24, 2013

Thursday
Previous Day Next Day
Daily Summary
 ActualAverageRecord
Temperature
Mean Temperature °F 31°F  
Max Temperature 31°F 37°F 51°F (2002)
Min Temperature 16°F 25°F 2°F (2008)
Degree Days
Heating Degree Days 41 34  
Month to date heating degree days 925 854  
Since 1 July heating degree days 3133 3441  
Cooling Degree Days 0 0  
Month to date cooling degree days 0 0  
Year to date cooling degree days 0 0  
Moisture
Dew Point 22°F   
Average Humidity 85    
Maximum Humidity 92    
Minimum Humidity 78    
Precipitation
Precipitation T in 0.03 in 1.10 in (1987)
Month to date precipitation 0.27 0.98  
Year to date precipitation 0.27 0.98  
Wind
Wind Speed 5 mph   
Max Wind Speed 9 mph   
Max Gust Speed 17 mph   
Visibility 6 miles   
Events     

Key: T is trace of precipitation, MM is missing value
Source: NWS Daily Summary
Time(PST)TemperatureDew PointHumidity Pressure Visibility Wind DirectionWind SpeedGust SpeedPrecipitationEvents Conditions
12:52 AM 19.9°F 17.1°F 89% 30.16 in 6.0 miles Calm Calm - N/A   Clear
1:52 AM 21.0°F 17.1°F 85% 30.18 in 6.0 miles East 4.6 mph - N/A   Clear
2:52 AM 18.0°F 15.1°F 88% 30.21 in 5.0 miles NNE 3.5 mph - N/A   Clear
3:52 AM 17.1°F 12.9°F 84% 30.24 in 7.0 miles North 8.1 mph - N/A   Clear
4:52 AM 17.1°F 12.9°F 84% 30.25 in 6.0 miles North 6.9 mph - N/A   Partly Cloudy
5:06 AM 19.4°F 15.8°F 86% 30.20 in 6.0 miles North 6.9 mph - N/A   Mostly Cloudy
5:52 AM 21.9°F 19.0°F 89% 30.26 in 5.0 miles NNE 5.8 mph - N/A   Overcast
6:52 AM 25.0°F 21.0°F 85% 30.28 in 5.0 miles NNE 5.8 mph - N/A   Overcast
7:52 AM 25.0°F 21.9°F 88% 30.30 in 4.0 miles NNE 8.1 mph - N/A   Overcast
8:52 AM 26.1°F 21.9°F 84% 30.32 in 4.0 miles NE 8.1 mph - N/A   Overcast
9:52 AM 26.1°F 23.0°F 88% 30.32 in - North - - N/A   Unknown
10:52 AM 27.0°F 24.1°F 89% 30.33 in 4.0 miles North 6.9 mph - N/A   Mist
11:00 AM 26.6°F 24.8°F 93% 30.28 in 4.0 miles North 8.1 mph - N/A   Overcast
11:52 AM 28.0°F 23.0°F 81% 30.31 in 4.0 miles NNE 5.8 mph - N/A   Haze
12:52 PM 28.0°F 23.0°F 81% 30.29 in 6.0 miles NNE 6.9 mph - N/A   Haze
1:52 PM 28.9°F 24.1°F 82% 30.28 in 6.0 miles North 3.5 mph - N/A   Haze
2:52 PM 30.0°F 24.1°F 79% 30.27 in 6.0 miles North 4.6 mph - N/A   Haze
3:52 PM 30.0°F 25.0°F 82% 30.27 in 7.0 miles NW 3.5 mph - N/A   Overcast
4:22 PM 30.2°F 24.8°F 80% 30.20 in 6.0 miles NNE 4.6 mph - N/A   Haze
4:52 PM 30.0°F 24.1°F 79% 30.26 in 8.0 miles WNW 3.5 mph - N/A   Overcast
5:52 PM 28.9°F 24.1°F 82% 30.25 in 8.0 miles WNW 5.8 mph - N/A   Overcast
6:52 PM 30.0°F 24.1°F 79% 30.25 in 8.0 miles WNW 6.9 mph - N/A   Overcast
7:52 PM 30.0°F 24.1°F 79% 30.22 in 8.0 miles Calm Calm - N/A   Overcast
8:52 PM 28.9°F 25.0°F 85% 30.21 in 7.0 miles West 5.8 mph - 0.00 in   Overcast
9:52 PM 28.9°F 24.1°F 82% 30.22 in 7.0 miles West 6.9 mph - N/A   Overcast
10:52 PM 28.9°F 24.1°F 82% 30.21 in 8.0 miles WSW 4.6 mph - N/A   Overcast
11:30 PM 28.4°F 24.8°F 86% 30.16 in 8.0 miles WSW 4.6 mph - N/A   Overcast
11:52 PM 28.9°F 25.0°F 85% 30.20 in 8.0 miles Calm Calm - N/A   Overcast
Moon Phase
Jan. 24 Jan. 26 Feb. 03 Feb. 10 Feb. 17
Sunrise:07:31 AM (PST) Moon Rise:02:52 PM (PST)1/24
Sunset:04:47 PM (PST) Moon Set:05:35 AM (PST)1/24

Copyright © 2014 The Weather Underground, Inc.